Weather History for EGXG - October, 2012

Change the Weather History Date:

Saturday, October 20, 2012

  Actual Average Record
Temperature  
Mean Temperature 50 °F -  
Max Temperature 59 °F - - ()
Min Temperature 40 °F - - ()
Degree Days  
Heating Degree Days 16    
Moisture  
Dew Point 46 °F    
Average Humidity 85    
Maximum Humidity 100    
Minimum Humidity 51    
Precipitation  
Precipitation 0.00 in - - ()
Sea Level Pressure  
Sea Level Pressure 29.94 in    
Wind  
Wind Speed 4 mph ()    
Max Wind Speed 15 mph    
Max Gust Speed -    
Visibility 4.1 miles    
Events Fog    
T = Trace of Precipitation, MM = Missing Value Source: Averaged Metar Reports

Daily Weather History Graph

Daily Weather History Graph

Search for Another Location

Airport or City:

Trip Planner

Search our weather history database for the weather conditions in past years. The results will help you decide how hot, cold, wet, or windy it might be!

Date:

Astronomy

Oct. 20, 2012 Rise Set
Actual Time 7:42 AM BST 5:55 PM BST
Civil Twilight 7:06 AM BST 6:31 PM BST
Nautical Twilight 6:25 AM BST 7:12 PM BST
Astronomical Twilight 5:44 AM BST 7:53 PM BST
Moon 1:34 PM BST (10/20) 9:58 PM BST (10/20)
Length of Visible Light 11h 25m
Length of Day
10h 13m
Waxing Crescent, 31% of the Moon is Illuminated
Oct 20
Waxing Crescent
Oct 22
First Quarter
Oct 29
Full
Nov 7
Last Quarter
Nov 13
New

Hourly Weather History & Observations

Time (BST) Temp. Windchill Dew Point Humidity Pressure Visibility Wind Dir Wind Speed Gust Speed Precip Events Conditions
12:50 AM 48 °F - 47 °F 96% 29.81 in 0 mi Calm Calm - - Fog Fog
12:50 AM 48.2 °F - 48.2 °F 100% 29.80 in 0.3 mi Calm Calm - N/A Fog Fog
1:50 AM 48.2 °F - 48.2 °F 100% 29.80 in 0.2 mi Calm Calm - N/A Fog Fog
2:50 AM 46.4 °F - 46.4 °F 100% 29.80 in 0.2 mi ESE 1.2 mph - N/A Fog Fog
3:50 AM 45 °F - 45 °F 100% 29.83 in 0 mi SSE 2.3 mph - - Fog Fog
3:50 AM 44.6 °F - 44.6 °F 100% 29.80 in 0.1 mi SSE 2.3 mph - N/A Fog Fog
4:50 AM 46.4 °F 45.2 °F 46.4 °F 100% 29.83 in 0.2 mi SW 3.5 mph - N/A Fog Fog
5:50 AM - - - N/A% 29.86 in 0.2 mi SW 3.5 mph - N/A Fog Fog
6:50 AM 40 °F - 40 °F 100% 29.88 in 0 mi South 2.3 mph - - Fog Fog
6:50 AM 41.0 °F - 41.0 °F 100% 29.86 in 0.1 mi South 2.3 mph - N/A Fog Fog
7:50 AM 41.0 °F 38.0 °F 41.0 °F 100% 29.89 in 0.1 mi South 4.6 mph - N/A Fog Fog
8:50 AM 42.8 °F 40.1 °F 42.8 °F 100% 29.92 in 0.7 mi South 4.6 mph - N/A   Unknown
9:50 AM 50 °F - 47 °F 85% 29.95 in 3 mi SSW 5.8 mph - -   Mist
9:50 AM 50.0 °F - 46.4 °F 87% 29.95 in 3.1 mi SSW 5.8 mph - N/A   Haze
10:50 AM 53.6 °F - 46.4 °F 77% 29.95 in 6.2 mi SW 13.8 mph - N/A   Partly Cloudy
11:50 AM 55.4 °F - 48.2 °F 77% 29.95 in 6.2 mi SW 11.5 mph - N/A   Mostly Cloudy
12:50 PM 58 °F - 45 °F 52% 29.97 in 15 mi WSW 15.0 mph - -   Partly Cloudy
12:50 PM 57.2 °F - 44.6 °F 63% 29.95 in 6.2 mi WSW 15.0 mph - N/A   Scattered Clouds
1:50 PM 59.0 °F - 44.6 °F 59% 29.98 in 5.6 mi West 11.5 mph - N/A   Haze
2:50 PM 59.0 °F - 44.6 °F 59% 29.98 in 6.2 mi West 6.9 mph - N/A   Mostly Cloudy
3:50 PM 59 °F - 46 °F 51% 30.00 in 6 mi West 5.8 mph - -   Mostly Cloudy
3:50 PM 59.0 °F - 46.4 °F 63% 29.98 in 6.2 mi West 5.8 mph - N/A   Mostly Cloudy
4:50 PM 55.4 °F - 48.2 °F 77% 30.01 in 6.2 mi South 8.1 mph - N/A   Mostly Cloudy
5:50 PM 53.6 °F - 48.2 °F 82% 30.01 in 6.2 mi South 5.8 mph - N/A   Overcast
6:50 PM 53 °F - 49 °F 80% 30.05 in 11 mi South 5.8 mph - -   Overcast
6:50 PM 53.6 °F - 48.2 °F 82% 30.04 in 6.2 mi South 5.8 mph - N/A   Overcast
7:50 PM 51.8 °F - 48.2 °F 88% 30.04 in 6.2 mi South 3.5 mph - N/A   Overcast
8:50 PM 50.0 °F - 48.2 °F 94% 30.06 in 6.2 mi ESE 5.8 mph - N/A   Overcast
9:50 PM 50 °F - 48 °F 89% 30.08 in 7 mi SSE 3.5 mph - -   Overcast
9:50 PM 50.0 °F - 48.2 °F 94% 30.06 in 6.2 mi SSE 3.5 mph - N/A   Overcast
10:50 PM 50.0 °F - 48.2 °F 94% 30.06 in 5.6 mi South 5.8 mph - N/A   Haze
11:50 PM 50.0 °F - 48.2 °F 94% 30.06 in 5.0 mi SW 2.3 mph - N/A   Overcast